Humidity-temperature Sensor

Selected Measurement Type: Relative Humidity

 
Relative Humidity [%]     6 entries per hour
Showing data from 6/19/2019 (00:00:00 Z) to 6/18/2019 (00:01:00 Z)
Previous Next [ Day | 3-Days | 7-Days ]
First Last
Prev [ Day | 3-Days | 7-Days ] Next
First Last

Start Time:     :
End Time:     :     
Time (in GMT) :00 :50 :40 :30 :20 :10
Previous Next [ Day | 3-Days | 7-Days ]
First Last
Prev [ Day | 3-Days | 7-Days ] Next
First Last


123 => good data
MM => data is determined as missing
-- => data not received/configured
Back to Top Back to Top
6/19/2019 00:00 to 23:10 90.67 90.81 91.04 91.37 89.15 88.42
6/18/2019 23:00 to 22:10 86.92 86.41 86.35 84.61 84.87 85.00
6/18/2019 22:00 to 21:10 85.47 85.88 87.11 88.21 87.25 86.76
6/18/2019 21:00 to 20:10 86.31 86.49 84.08 83.97 83.28 84.24
6/18/2019 20:00 to 19:10 83.95 85.45 85.90 87.02 87.47 87.04
6/18/2019 19:00 to 18:10 87.17 88.40 88.46 89.11 89.11 89.48
6/18/2019 18:00 to 17:10 91.04 92.39 93.39 94.19 93.74 93.17
6/18/2019 17:00 to 16:10 93.11 93.70 94.25 94.03 93.93 92.59
6/18/2019 16:00 to 15:10 93.35 93.05 93.13 91.86 91.63 88.85
6/18/2019 15:00 to 14:10 88.97 89.44 91.45 90.49 88.93 90.47
6/18/2019 14:00 to 13:10 90.73 90.14 91.26 90.90 92.06 91.45
6/18/2019 13:00 to 12:10 91.71 93.09 94.25 95.69 96.01 96.48
6/18/2019 12:00 to 11:10 96.57 95.63 94.40 95.56 95.34 95.81
6/18/2019 11:00 to 10:10 94.93 95.30 94.38 95.60 95.85 95.65
6/18/2019 10:00 to 9:10 94.48 93.84 93.97 93.33 94.23 94.62
6/18/2019 09:00 to 8:10 94.87 94.21 93.80 91.92 90.36 86.66
6/18/2019 08:00 to 7:10 86.29 84.22 85.43 87.11 87.37 88.05
6/18/2019 07:00 to 6:10 88.56 88.66 88.66 89.24 89.75 89.26
6/18/2019 06:00 to 5:10 84.16 84.18 84.14 86.37 86.45 84.69
6/18/2019 05:00 to 4:10 83.97 82.77 83.87 82.03 81.50 80.88
6/18/2019 04:00 to 3:10 82.11 84.65 84.44 84.81 84.51 86.51
6/18/2019 03:00 to 2:10 89.75 86.49 90.49 87.37 84.63 84.30
6/18/2019 02:00 to 1:10 83.42 83.67 83.83 82.97 81.70 82.56
6/18/2019 01:00 to 0:10 81.29 82.56 82.42 82.72 83.52 83.22